TimeMDT,TemperatureF,Dew PointF,Humidity,Sea Level PressureIn,VisibilityMPH,Wind Direction,Wind SpeedMPH,Gust SpeedMPH,PrecipitationIn,Events,Conditions,WindDirDegrees,DateUTC
12:53 AM,46.0,41.0,83,30.04,10.0,SSE,10.4,-,0.00,Rain,Light Rain,150,2013-06-22 06:53:00
1:53 AM,45.0,42.1,90,30.04,6.0,WSW,3.5,-,0.06,Rain,Light Rain,250,2013-06-22 07:53:00
2:53 AM,45.0,43.0,93,30.03,10.0,SE,4.6,-,0.00,,Overcast,130,2013-06-22 08:53:00
3:53 AM,45.0,43.0,93,30.00,10.0,Calm,Calm,-,0.02,Rain,Light Rain,0,2013-06-22 09:53:00
4:53 AM,45.0,42.1,90,29.99,10.0,Calm,Calm,-,0.00,,Overcast,0,2013-06-22 10:53:00
5:53 AM,45.0,39.9,82,29.98,10.0,NW,3.5,-,N/A,,Overcast,310,2013-06-22 11:53:00
6:53 AM,45.0,41.0,86,29.99,10.0,NW,3.5,-,0.01,,Overcast,320,2013-06-22 12:53:00
7:53 AM,45.0,39.0,80,30.01,10.0,WNW,9.2,-,N/A,,Overcast,290,2013-06-22 13:53:00
8:53 AM,46.0,41.0,83,30.02,10.0,WNW,8.1,-,N/A,,Overcast,290,2013-06-22 14:53:00
9:34 AM,46.4,39.2,76,30.08,10.0,WNW,10.4,-,N/A,,Overcast,290,2013-06-22 15:34:00
9:53 AM,46.9,41.0,80,30.02,10.0,West,8.1,-,N/A,,Overcast,280,2013-06-22 15:53:00
10:53 AM,46.9,39.9,77,30.03,10.0,WNW,9.2,-,N/A,,Overcast,290,2013-06-22 16:53:00
11:53 AM,48.9,39.0,69,30.04,10.0,NW,10.4,-,N/A,,Overcast,310,2013-06-22 17:53:00
12:01 PM,48.2,39.2,71,30.09,10.0,WNW,10.4,-,N/A,,Overcast,300,2013-06-22 18:01:00
12:53 PM,51.1,39.0,63,30.02,10.0,NNW,9.2,-,N/A,,Overcast,330,2013-06-22 18:53:00
1:03 PM,51.8,37.4,58,30.08,10.0,WNW,5.8,-,N/A,,Overcast,300,2013-06-22 19:03:00
1:14 PM,51.8,39.2,62,30.08,10.0,Variable,5.8,-,N/A,,Overcast,0,2013-06-22 19:14:00
1:53 PM,52.0,39.0,61,30.02,10.0,South,4.6,-,N/A,,Overcast,180,2013-06-22 19:53:00
2:53 PM,52.0,39.0,61,30.01,10.0,SE,3.5,-,0.01,,Overcast,140,2013-06-22 20:53:00
3:53 PM,55.9,39.9,55,29.98,10.0,SE,4.6,-,0.00,,Scattered Clouds,140,2013-06-22 21:53:00
4:53 PM,57.0,37.0,47,29.97,10.0,NNW,10.4,-,N/A,,Mostly Cloudy,330,2013-06-22 22:53:00
5:53 PM,54.0,37.0,53,30.00,10.0,West,13.8,21.9,0.00,,Overcast,280,2013-06-22 23:53:00
6:53 PM,55.9,39.0,53,29.97,10.0,SSW,9.2,-,0.00,,Mostly Cloudy,200,2013-06-23 00:53:00
7:53 PM,55.9,37.9,51,29.99,10.0,NNW,11.5,18.4,N/A,,Overcast,340,2013-06-23 01:53:00
8:53 PM,53.1,42.1,66,30.00,10.0,Calm,Calm,-,0.03,,Mostly Cloudy,0,2013-06-23 02:53:00
9:53 PM,50.0,42.1,74,30.02,10.0,South,5.8,-,N/A,,Mostly Cloudy,170,2013-06-23 03:53:00
10:53 PM,48.0,42.1,80,30.03,10.0,SSW,5.8,-,N/A,,Mostly Cloudy,200,2013-06-23 04:53:00
11:53 PM,44.1,42.1,93,30.03,10.0,ESE,4.6,-,N/A,,Clear,120,2013-06-23 05:53:00